VR2HK-13 Weather Reports


Display with metric or nautical units.
time (UTC)temp
F
wind
direction
speed
MPH
gust
MPH
rain 1hr
in
rain 24hr
in
rain mn
in
humidity
%
barometer
mb
20260509140155 74 67 1.0 5.0 0.00 2.09 0.00 80 1016.1
20260509140043 74 246 1.0 4.0 0.00 2.13 0.00 80 1016.1
20260509135645 74 272 1.0 13.0 0.00 2.17 0.00 80 1016.1
20260509135543 74 210 0.0 13.0 0.00 2.18 0.00 80 1016.0
20260509135134 74 56 7.0 11.0 0.00 2.25 0.00 80 1016.1
20260509135043 74 107 5.0 11.0 0.00 2.25 0.00 80 1016.1
20260509134625 74 250 2.0 6.0 0.00 2.27 0.00 80 1016.1
20260509134543 74 322 0.0 3.0 0.00 2.29 0.00 80 1016.1
20260509134114 74 295 2.0 10.0 0.00 2.36 0.00 79 1016.1
20260509134043 74 260 3.0 10.0 0.00 2.37 0.00 80 1016.1
20260509133605 74 14 4.0 10.0 0.00 2.48 0.00 80 1016.1
20260509133544 74 31 4.0 10.0 0.00 2.48 0.00 80 1016.1
20260509133054 74 7 1.0 8.0 0.00 2.63 0.00 80 1016.0
20260509133043 74 34 0.0 8.0 0.00 2.63 0.00 80 1016.0
20260509132545 74 5 0.0 6.0 0.00 2.69 0.00 80 1016.0
20260509132543 74 10 0.0 6.0 0.00 2.69 0.00 80 1016.0
20260509132043 74 262 2.0 3.0 0.00 2.78 0.00 80 1016.0
20260509132034 74 305 1.0 3.0 0.00 2.78 0.00 80 1015.9
20260509131543 74 286 0.0 7.0 0.00 2.81 0.00 80 1015.9
20260509131524 74 308 0.0 7.0 0.00 2.81 0.00 80 1015.9
20260509131043 74 322 3.0 10.0 0.00 2.90 0.00 80 1015.8
20260509131014 74 334 5.0 10.0 0.00 2.90 0.00 80 1015.8
20260509130543 74 294 1.0 11.0 0.00 2.99 0.00 80 1015.7
20260509130504 74 298 2.0 11.0 0.00 3.04 0.00 80 1015.7
20260509130042 74 356 2.0 9.0 0.00 3.10 0.00 80 1015.6
20260509125954 74 26 2.0 12.0 0.00 3.11 0.00 80 1015.7
20260509125543 74 267 4.0 12.0 0.00 3.17 0.00 80 1015.5
20260509125444 74 358 2.0 11.0 0.00 3.22 0.00 80 1015.5
20260509125042 74 52 5.0 18.0 0.00 3.27 0.00 79 1015.5
20260509124934 74 100 6.0 18.0 0.00 3.29 0.00 79 1015.5
20260509124543 74 352 2.0 8.0 0.00 3.34 0.00 80 1015.3
20260509124424 74 20 4.0 14.0 0.00 3.35 0.00 80 1015.3
20260509124043 74 50 5.0 14.0 0.00 3.44 0.00 80 1015.3
20260509123914 74 2 5.0 13.0 0.00 3.48 0.00 80 1015.3
20260509123543 74 48 2.0 14.0 0.00 3.53 0.00 80 1015.3
20260509123404 74 235 2.0 14.0 0.00 3.56 0.00 80 1015.2
20260509123043 74 284 2.0 15.0 0.00 3.63 0.00 80 1015.2
20260509122854 74 318 7.0 15.0 0.00 3.67 0.00 80 1015.3
20260509122542 74 255 6.0 15.0 0.00 3.68 0.00 80 1015.1
20260509122344 74 343 3.0 10.0 0.00 3.69 0.00 80 1015.2
20260509122043 74 327 2.0 15.0 0.00 3.70 0.00 80 1015.1
20260509121834 74 225 3.0 15.0 0.00 3.74 0.00 80 1015.1
20260509121542 74 271 4.0 26.0 0.00 3.79 0.00 80 1015.1
20260509121324 74 53 11.0 26.0 0.00 3.82 0.00 80 1015.0
20260509121042 74 40 3.0 7.0 0.00 3.88 0.00 80 1015.0
20260509120814 74 269 2.0 11.0 0.00 3.93 0.00 80 1014.9
20260509120543 74 256 5.0 17.0 0.00 3.95 0.00 80 1014.9
20260509120303 74 40 7.0 17.0 0.00 4.00 0.00 80 1014.9
20260509120042 74 358 4.0 11.0 0.00 4.05 0.00 80 1014.8
20260509115754 74 314 3.0 13.0 0.00 4.08 0.00 80 1014.8
20260509115543 74 325 6.0 13.0 0.00 4.09 0.00 80 1014.8
20260509115243 74 298 2.0 9.0 0.00 4.16 0.00 80 1014.8
20260509115042 74 331 2.0 13.0 0.00 4.20 0.00 80 1014.8
20260509114734 74 343 6.0 14.0 0.00 4.21 0.00 80 1014.8
20260509114542 74 264 3.0 14.0 0.00 4.26 0.00 80 1014.8
20260509114224 74 22 7.0 12.0 0.00 4.31 0.00 80 1014.7
20260509114042 74 5 3.0 11.0 0.00 4.32 0.00 80 1014.7
20260509113713 74 67 5.0 11.0 0.00 4.37 0.00 80 1014.7
20260509113542 74 338 2.0 11.0 0.00 4.38 0.00 80 1014.6
20260509113204 74 291 3.0 14.0 0.00 4.44 0.00 80 1014.5
20260509113042 74 41 8.0 14.0 0.00 4.45 0.00 80 1014.5
20260509112653 74 13 3.0 14.0 0.00 4.48 0.00 80 1014.6
20260509112542 74 295 6.0 14.0 0.00 4.51 0.00 80 1014.6
20260509112144 74 279 2.0 16.0 0.00 4.54 0.00 80 1014.6
20260509112042 74 67 2.0 16.0 0.00 4.54 0.00 80 1014.6
20260509111633 74 333 5.0 20.0 0.00 4.62 0.00 80 1014.6
20260509111542 74 351 3.0 20.0 0.00 4.65 0.00 80 1014.6
20260509111123 74 225 3.0 12.0 0.00 4.70 0.00 80 1014.6
20260509111042 74 43 3.0 19.0 0.00 4.70 0.00 80 1014.7
20260509110613 74 37 8.0 19.0 0.00 4.74 0.00 80 1014.7
20260509110542 74 57 2.0 18.0 0.00 4.74 0.00 80 1014.7
20260509110042 74 260 4.0 9.0 0.00 4.78 0.00 80 1014.5
20260509105553 74 249 3.0 14.0 0.00 4.81 0.00 80 1014.6
20260509105542 74 300 3.0 14.0 0.00 4.81 0.00 80 1014.5
20260509105044 74 52 9.0 24.0 0.00 4.88 0.00 80 1014.7
20260509105042 74 48 8.0 24.0 0.00 4.88 0.00 80 1014.7
20260509104542 74 64 4.0 15.0 0.00 4.92 0.00 80 1014.6
20260509104533 74 28 4.0 15.0 0.00 4.92 0.00 80 1014.6
20260509104041 74 260 1.0 8.0 0.00 4.98 0.00 80 1014.7
20260509104023 74 302 1.0 8.0 0.00 4.98 0.00 80 1014.7
20260509103513 74 331 0.0 14.0 0.00 5.00 0.00 80 1014.7
20260509103042 74 30 2.0 14.0 0.00 5.03 0.00 80 1014.6
20260509103003 74 174 1.0 12.0 0.00 5.04 0.00 80 1014.6
20260509102542 74 125 6.0 12.0 0.00 5.10 0.00 80 1014.5
20260509102453 74 31 4.0 12.0 0.00 5.10 0.00 80 1014.5
20260509102041 74 209 7.0 12.0 0.00 5.11 0.00 80 1014.4
20260509101943 74 269 4.0 12.0 0.00 5.11 0.00 80 1014.4
20260509101542 74 359 6.0 13.0 0.00 5.16 0.00 80 1014.4
20260509101433 74 12 6.0 13.0 0.00 5.17 0.00 80 1014.4
20260509101041 74 345 4.0 14.0 0.00 5.23 0.00 80 1014.3
20260509100923 74 323 1.0 15.0 0.00 5.23 0.00 80 1014.3
20260509100542 74 44 8.0 15.0 0.00 5.25 0.00 80 1014.5
20260509100413 74 11 3.0 12.0 0.00 5.25 0.00 80 1014.4
20260509100041 74 254 3.0 16.0 0.00 5.27 0.00 80 1014.4
20260509095903 74 29 9.0 16.0 0.00 5.27 0.00 80 1014.5
20260509095542 74 347 1.0 10.0 0.00 5.33 0.00 80 1014.5
20260509095352 74 327 2.0 10.0 0.00 5.35 0.00 80 1014.5
20260509095041 74 317 3.0 9.0 0.00 5.37 0.00 80 1014.4
20260509094843 74 256 4.0 9.0 0.00 5.40 0.00 80 1014.5
20260509094542 74 248 1.0 9.0 0.00 5.43 0.00 80 1014.5
20260509094333 74 225 2.0 12.0 0.00 5.48 0.00 80 1014.4
20260509094041 74 358 5.0 12.0 0.00 5.51 0.00 80 1014.4
20260509093541 74 38 4.0 10.0 0.00 5.58 0.00 80 1014.4
20260509093313 74 258 3.0 10.0 0.00 5.63 0.00 80 1014.4
20260509093041 74 310 1.0 9.0 0.00 5.66 0.00 80 1014.3
20260509092803 74 180 3.0 11.0 0.00 5.75 0.00 80 1014.4
20260509092541 74 217 5.0 11.0 0.00 5.78 0.00 80 1014.3
20260509092253 74 356 2.0 10.0 0.00 5.83 0.00 80 1014.3
20260509092042 74 234 4.0 10.0 0.00 5.89 0.00 80 1014.2
20260509091742 74 284 2.0 9.0 0.00 5.90 0.00 80 1014.2
20260509091541 74 268 3.0 9.0 0.00 5.97 0.00 79 1014.1
20260509091233 74 315 2.0 6.0 0.00 6.02 0.00 79 1014.2
20260509091041 74 253 1.0 9.0 0.00 6.02 0.00 79 1014.1
20260509090722 74 104 4.0 9.0 0.00 6.10 0.00 79 1014.2
20260509090541 74 233 2.0 8.0 0.00 6.12 0.00 79 1014.2
20260509090041 74 307 1.0 14.0 0.00 6.24 0.00 79 1014.1
20260509085703 74 7 4.0 11.0 0.00 6.31 0.00 79 1014.1
20260509085541 74 267 4.0 11.0 0.00 6.33 0.00 79 1014.1
20260509085152 74 360 6.0 10.0 0.00 6.36 0.00 79 1014.1
20260509085041 74 1 2.0 10.0 0.00 6.37 0.00 79 1014.1
20260509084643 74 360 4.0 9.0 0.00 6.41 0.00 79 1014.1
20260509084541 74 357 2.0 9.0 0.00 6.42 0.00 79 1014.1
20260509084132 74 360 5.0 18.0 0.00 6.51 0.00 79 1014.1
20260509084041 74 66 4.0 18.0 0.00 6.51 0.00 79 1014.1
20260509083623 74 256 7.0 14.0 0.00 6.60 0.00 79 1014.1
20260509083541 74 205 8.0 14.0 0.00 6.60 0.00 79 1014.0
20260509083112 74 298 2.0 15.0 0.00 6.64 0.00 79 1014.1
20260509083041 74 47 2.0 16.0 0.00 6.64 0.00 79 1014.1
20260509082602 74 151 6.0 17.0 0.00 6.80 0.00 79 1014.1
20260509082541 74 301 7.0 17.0 0.00 6.80 0.00 79 1014.0
20260509082052 74 35 3.0 16.0 0.00 6.89 0.00 79 1014.2
20260509082040 74 74 3.0 16.0 0.00 6.89 0.00 79 1014.2
20260509081543 74 301 4.0 16.0 0.00 6.96 0.00 79 1014.1
20260509081541 74 336 4.0 16.0 0.00 6.96 0.00 79 1014.1
20260509081040 74 339 8.0 21.0 0.00 7.05 0.00 79 1014.2
20260509081032 74 5 8.0 21.0 0.00 7.06 0.00 79 1014.2
20260509080541 74 198 2.0 11.0 0.00 7.13 0.00 79 1014.1
20260509080522 74 269 3.0 11.0 0.00 7.15 0.00 79 1014.1
20260509080040 74 287 1.0 20.0 0.00 7.28 0.00 79 1014.2
20260509080012 74 288 1.0 20.0 0.00 7.29 0.00 79 1014.1
20260509075540 74 278 4.0 13.0 0.00 7.35 0.00 79 1014.1
20260509075502 74 328 4.0 13.0 0.00 7.38 0.00 79 1014.1
20260509075040 74 281 3.0 15.0 0.00 7.44 0.00 79 1014.1
20260509074951 74 259 3.0 15.0 0.00 7.46 0.00 79 1014.1
20260509074541 74 252 4.0 10.0 0.00 7.52 0.00 80 1014.2
20260509074442 74 292 6.0 10.0 0.00 7.52 0.00 80 1014.2
20260509074040 74 286 1.0 8.0 0.00 7.57 0.00 80 1014.2
20260509073932 74 283 0.0 8.0 0.00 7.58 0.00 79 1014.3
20260509073540 74 250 5.0 11.0 0.00 7.67 0.00 80 1014.3
20260509073422 74 251 5.0 11.0 0.00 7.68 0.00 80 1014.3
20260509073040 74 360 5.0 10.0 0.00 7.74 0.00 80 1014.3
20260509072541 74 329 4.0 13.0 0.00 7.80 0.00 79 1014.3
20260509072040 74 11 3.0 10.0 0.00 7.87 0.00 80 1014.4
20260509071851 74 318 1.0 10.0 0.00 7.90 0.00 80 1014.4
20260509071541 74 336 5.0 11.0 0.00 7.98 0.00 80 1014.4
20260509071342 74 34 5.0 11.0 0.00 8.00 0.00 80 1014.5
20260509071040 74 196 3.0 14.0 0.00 8.05 0.00 80 1014.4
20260509070540 75 324 1.0 8.0 0.00 8.07 0.00 80 1014.4
20260509070040 74 290 5.0 12.0 0.00 8.10 0.00 80 1014.4
20260509065541 75 258 2.0 12.0 0.00 8.17 0.00 80 1014.5
20260509065040 74 222 7.0 11.0 0.00 8.22 0.00 80 1014.4
20260509064539 74 19 5.0 13.0 0.00 8.26 0.00 80 1014.5
20260509064040 74 252 5.0 11.0 0.00 8.27 0.00 81 1014.5
20260509063040 74 253 4.0 15.0 0.00 8.38 0.00 82 1014.7
20260509062539 74 63 5.0 11.0 0.00 8.43 0.00 82 1014.7
20260509062040 73 24 2.0 8.0 0.00 8.50 0.00 82 1014.8
20260509061651 73 246 2.0 7.0 0.00 8.52 0.00 82 1014.8
20260509061539 73 331 3.0 12.0 0.00 8.53 0.00 83 1014.9
20260509061040 73 343 6.0 13.0 0.00 8.58 0.00 83 1015.1
20260509060631 73 352 7.0 20.0 0.00 8.63 0.00 83 1015.1
20260509060539 73 64 8.0 20.0 0.00 8.64 0.00 83 1015.2
20260509060121 73 219 4.0 9.0 0.00 8.72 0.00 83 1015.0
20260509060039 73 210 3.0 9.0 0.00 8.72 0.00 83 1015.1
20260509055611 73 258 3.0 10.0 0.00 8.75 0.00 83 1015.1
20260509055540 73 44 4.0 12.0 0.00 8.77 0.00 83 1015.1
20260509055039 73 285 5.0 9.0 0.00 8.79 0.00 83 1015.1
20260509054551 73 294 5.0 19.0 0.00 8.84 0.00 82 1015.1
20260509054540 73 334 5.0 19.0 0.00 8.84 0.00 82 1015.2
20260509054039 74 60 5.0 15.0 0.00 8.89 0.00 83 1015.2
20260509053540 74 113 0.0 10.0 0.00 8.96 0.00 83 1015.3
20260509053531 74 132 0.0 10.0 0.00 8.96 0.00 83 1015.3
20260509053039 74 269 1.0 12.0 0.00 9.04 0.00 82 1015.4
20260509053021 74 275 1.0 12.0 0.00 9.04 0.00 82 1015.4
20260509052540 73 210 3.0 11.0 0.00 9.11 0.00 83 1015.4
20260509052511 73 274 4.0 11.0 0.00 9.11 0.00 82 1015.5
20260509052039 74 275 3.0 6.0 0.00 9.12 0.00 83 1015.5
20260509052000 74 259 1.0 4.0 0.00 9.12 0.00 83 1015.5
20260509051540 74 304 3.0 9.0 0.00 9.14 0.00 83 1015.5
20260509051451 74 295 6.0 9.0 0.00 9.15 0.00 83 1015.4
20260509051039 74 241 2.0 7.0 0.00 9.16 0.00 84 1015.5
20260509050539 74 231 3.0 7.0 0.00 9.21 0.00 83 1015.5
20260509050431 73 20 2.0 11.0 0.00 9.21 0.00 84 1015.6
20260509050039 73 11 4.0 11.0 0.00 9.23 0.00 83 1015.7
20260509045920 73 318 2.0 12.0 0.00 9.24 0.00 84 1015.7
20260509045539 73 315 4.0 21.0 0.00 9.29 0.00 83 1015.8
20260509045411 73 68 11.0 21.0 0.00 9.30 0.00 83 1015.8
20260509045039 74 276 3.0 7.0 0.00 9.35 0.00 84 1015.8
20260509044901 74 335 3.0 8.0 0.00 9.36 0.00 84 1015.7
20260509044539 74 272 4.0 9.0 0.00 9.41 0.00 84 1015.8
20260509044350 73 298 2.0 9.0 0.00 9.42 0.00 84 1015.9
20260509044039 73 284 3.0 21.0 0.00 9.43 0.00 84 1016.0
20260509043841 73 77 3.0 21.0 0.00 9.47 0.00 84 1016.0
20260509043539 73 236 7.0 15.0 0.00 9.51 0.00 84 1016.0
20260509043330 73 305 1.0 8.0 0.00 9.56 0.00 84 1016.1
20260509043039 73 283 4.0 8.0 0.00 9.59 0.00 84 1016.2
20260509042821 73 82 1.0 7.0 0.00 9.59 0.00 84 1016.3
20260509042539 73 351 2.0 9.0 0.00 9.60 0.00 84 1016.3
20260509042310 73 77 5.0 13.0 0.00 9.62 0.00 84 1016.3
20260509042039 73 348 2.0 14.0 0.00 9.64 0.00 84 1016.3
20260509041801 73 277 3.0 14.0 0.00 9.64 0.00 84 1016.3
20260509041539 73 23 3.0 12.0 0.00 9.68 0.00 84 1016.5
20260509041250 73 360 6.0 22.0 0.00 9.73 0.00 84 1016.4
20260509041039 73 0 8.0 22.0 0.00 9.73 0.00 84 1016.4
20260509040538 73 30 4.0 15.0 0.00 9.79 0.00 84 1016.4
20260509040230 73 241 5.0 17.0 0.00 9.83 0.00 85 1016.3
20260509040039 73 230 3.0 17.0 0.00 9.89 0.00 85 1016.3
20260509035720 73 36 2.0 12.0 0.00 9.95 0.00 85 1016.4
20260509035537 73 222 7.0 12.0 0.00 9.98 0.00 85 1016.4
20260509035210 73 330 3.0 17.0 0.00 0.01 0.00 85 1016.4
20260509035039 73 11 4.0 17.0 0.00 0.07 0.00 85 1016.4
20260509034700 73 15 4.0 10.0 0.00 0.12 0.00 85 1016.5
20260509034539 73 276 7.0 10.0 0.00 0.14 0.00 85 1016.5
20260509034150 73 230 7.0 13.0 0.00 0.22 0.00 85 1016.6
20260509034039 73 309 4.0 13.0 0.00 0.26 0.00 85 1016.6
20260509033640 73 247 4.0 14.0 0.00 0.29 0.00 85 1016.7
20260509033539 73 239 8.0 14.0 0.00 0.29 0.00 85 1016.6
20260509033130 73 240 3.0 10.0 0.00 0.35 0.00 85 1016.7
20260509033039 73 240 5.0 10.0 0.00 0.38 0.00 85 1016.7
20260509032620 73 183 3.0 8.0 0.00 0.45 0.00 85 1016.6
20260509032539 73 280 2.0 8.0 0.00 0.45 0.00 85 1016.6
20260509032109 73 263 3.0 13.0 0.00 0.55 0.00 85 1016.6
20260509032038 73 278 2.0 13.0 0.00 0.58 0.00 85 1016.6
20260509031600 73 48 2.0 17.0 0.00 0.66 0.00 85 1016.6
20260509031539 73 62 2.0 17.0 0.00 0.66 0.00 85 1016.6
20260509031049 73 67 4.0 10.0 0.00 0.78 0.00 85 1016.7
20260509031038 73 66 4.0 10.0 0.00 0.78 0.00 85 1016.7
20260509030541 73 44 5.0 20.0 0.00 0.85 0.00 85 1016.6
20260509030539 73 41 5.0 20.0 0.00 0.85 0.00 85 1016.6
20260509030038 73 358 4.0 12.0 0.00 0.88 0.00 85 1016.5
20260509030029 73 298 5.0 12.0 0.00 0.88 0.00 85 1016.4
20260509025538 73 338 4.0 16.0 0.00 0.99 0.00 85 1016.4
20260509025519 73 286 4.0 16.0 0.00 0.99 0.00 85 1016.4
20260509025038 73 209 2.0 7.0 0.00 1.09 0.00 85 1016.3
20260509025010 73 263 2.0 7.0 0.00 1.09 0.00 85 1016.3
20260509024538 73 224 1.0 12.0 0.00 1.18 0.00 85 1016.4
20260509024459 73 76 1.0 13.0 0.00 1.19 0.00 85 1016.5
20260509024038 73 8 8.0 18.0 0.00 1.26 0.00 85 1016.5
20260509023950 73 30 3.0 18.0 0.00 1.30 0.00 85 1016.5
20260509023538 73 29 6.0 16.0 0.00 1.33 0.00 85 1016.6
20260509023439 73 111 6.0 16.0 0.00 1.35 0.00 85 1016.6
20260509023038 73 280 6.0 10.0 0.00 1.44 0.00 85 1016.5
20260509022930 73 356 5.0 8.0 0.00 1.44 0.00 85 1016.6
20260509022538 73 266 5.0 15.0 0.00 1.50 0.00 85 1016.7
20260509022419 73 273 6.0 15.0 0.00 1.51 0.00 85 1016.7
20260509022038 73 255 3.0 7.0 0.00 1.56 0.00 85 1016.8
20260509021538 73 255 3.0 11.0 0.00 1.66 0.00 85 1016.8
20260509021359 73 211 3.0 10.0 0.00 1.68 0.00 85 1016.8
20260509021038 73 62 3.0 16.0 0.00 1.81 0.00 85 1016.8
20260509020849 73 35 2.0 16.0 0.00 1.85 0.00 85 1016.8
20260509020537 73 349 5.0 11.0 0.00 1.90 0.00 85 1016.7
20260509020339 73 116 5.0 20.0 0.00 1.92 0.00 85 1016.7
20260509020038 73 17 8.0 20.0 0.00 1.95 0.00 85 1016.6
20260509015829 73 81 9.0 18.0 0.00 1.99 0.00 85 1016.7
20260509015537 73 196 2.0 10.0 0.00 2.05 0.00 85 1016.8
20260509015319 73 128 3.0 14.0 0.00 2.09 0.00 85 1016.7
20260509015038 73 99 4.0 14.0 0.00 2.12 0.00 85 1016.8
20260509014809 73 197 7.0 14.0 0.00 2.22 0.00 85 1016.7
20260509014536 73 16 3.0 15.0 0.00 2.28 0.00 85 1016.8
20260509014259 73 240 5.0 15.0 0.00 2.33 0.00 85 1016.8
20260509013749 73 257 5.0 16.0 0.00 2.37 0.00 85 1016.6
20260509013537 73 13 5.0 16.0 0.00 2.44 0.00 85 1016.7
20260509013239 73 323 4.0 11.0 0.00 2.55 0.00 85 1016.7
20260509013038 73 64 4.0 11.0 0.00 2.60 0.00 85 1016.8
20260509012729 73 307 1.0 14.0 0.00 2.66 0.00 85 1016.7
20260509012537 73 286 4.0 15.0 0.00 2.67 0.00 85 1016.7
20260509012219 73 228 8.0 15.0 0.00 2.72 0.00 86 1016.6
20260509012037 73 244 3.0 7.0 0.00 2.74 0.00 86 1016.6
20260509011709 73 294 2.0 12.0 0.00 2.77 0.00 86 1016.6
20260509011537 73 202 7.0 12.0 0.00 2.77 0.00 86 1016.5
20260509011159 73 96 3.0 10.0 0.00 2.82 0.00 86 1016.5
20260509011037 73 51 4.0 13.0 0.00 2.83 0.00 86 1016.6
20260509010649 73 198 8.0 14.0 0.00 2.88 0.00 86 1016.5
20260509010537 73 200 2.0 14.0 0.00 2.90 0.00 86 1016.5
20260509010138 73 235 0.0 5.0 0.00 2.98 0.00 86 1016.5
20260509010037 73 360 2.0 7.0 0.00 2.98 0.00 86 1016.5
20260509005629 73 247 5.0 10.0 0.00 3.05 0.00 86 1016.3
20260509005537 73 221 7.0 10.0 0.00 3.06 0.00 86 1016.3
20260509005119 73 319 2.0 8.0 0.00 3.11 0.00 86 1016.2
20260509005037 73 275 2.0 8.0 0.00 3.11 0.00 86 1016.2
20260509004609 73 19 5.0 20.0 0.00 3.16 0.00 86 1016.1
20260509004537 73 103 8.0 20.0 0.00 3.16 0.00 86 1016.1
20260509004058 73 242 0.0 4.0 0.00 3.21 0.00 87 1016.1
20260509004037 73 213 0.0 7.0 0.00 3.21 0.00 87 1016.1
20260509003549 73 316 5.0 15.0 0.00 3.27 0.00 87 1016.1
20260509003537 73 124 5.0 15.0 0.00 3.27 0.00 87 1016.1
20260509003039 72 310 0.0 18.0 0.00 3.28 0.00 87 1016.1
20260509003037 72 306 0.0 18.0 0.00 3.28 0.00 87 1016.1
20260509002537 72 307 4.0 18.0 0.00 3.31 0.00 87 1016.0
20260509002528 72 231 5.0 18.0 0.00 3.31 0.00 87 1015.9
20260509002037 72 154 3.0 21.0 0.00 3.32 0.00 87 1015.8
20260509002018 72 23 6.0 21.0 0.00 3.32 0.00 87 1015.8
20260509001537 73 3 4.0 17.0 0.00 3.33 0.00 87 1015.8
20260509001508 72 298 2.0 17.0 0.00 3.33 0.00 87 1015.8
20260509001037 73 230 3.0 11.0 0.00 3.33 0.00 87 1015.7
20260509000958 73 280 2.0 11.0 0.00 3.34 0.00 87 1015.8
20260509000537 73 259 3.0 15.0 0.00 3.35 0.00 87 1015.7
20260509000448 73 346 1.0 15.0 0.00 3.35 0.00 87 1015.7
20260509000036 73 63 4.0 16.0 0.00 3.40 0.00 87 1015.8
20260508235938 73 262 6.0 16.0 0.00 3.40 0.00 87 1015.7
20260508235537 73 314 5.0 10.0 0.00 3.41 0.00 87 1015.8
20260508235428 73 146 4.0 10.0 0.00 3.41 0.00 87 1015.8
20260508235037 73 98 2.0 14.0 0.00 3.42 0.00 87 1015.8
20260508234918 73 41 0.0 14.0 0.00 3.45 0.00 87 1015.8
20260508234537 73 76 4.0 13.0 0.00 3.46 0.00 87 1015.8
20260508234408 73 32 5.0 13.0 0.00 3.46 0.00 87 1015.8
20260508234037 73 283 5.0 13.0 0.00 3.48 0.00 87 1015.8
20260508233537 73 71 8.0 25.0 0.00 3.49 0.00 86 1015.8
20260508233348 73 44 4.0 8.0 0.00 3.49 0.00 86 1015.8
20260508233037 73 238 1.0 6.0 0.00 3.51 0.00 86 1015.7
20260508232838 73 35 0.0 9.0 0.00 3.51 0.00 86 1015.7
20260508232536 73 249 5.0 9.0 0.00 3.51 0.00 86 1015.7
20260508232328 73 282 2.0 8.0 0.00 3.51 0.00 86 1015.6
20260508232037 73 225 1.0 8.0 0.00 3.51 0.00 86 1015.6
20260508231818 73 227 3.0 7.0 0.00 3.51 0.00 86 1015.5
20260508231536 73 340 0.0 11.0 0.00 3.51 0.00 86 1015.4
20260508231308 73 181 1.0 11.0 0.00 3.51 0.00 86 1015.4
20260508231037 73 108 4.0 8.0 0.00 3.53 0.00 86 1015.4
20260508230757 73 277 1.0 6.0 0.00 3.54 0.00 86 1015.4
20260508230536 73 31 0.0 7.0 0.00 3.54 0.00 86 1015.3
20260508230248 73 171 1.0 11.0 0.00 3.54 0.00 86 1015.2
20260508230037 73 200 3.0 13.0 0.00 3.54 0.00 86 1015.2
20260508225737 73 324 7.0 13.0 0.00 3.55 0.00 86 1015.1
20260508225536 73 248 3.0 12.0 0.00 3.57 0.00 86 1015.1
20260508225228 73 256 6.0 12.0 0.00 3.59 0.00 86 1015.0
20260508225036 73 244 4.0 8.0 0.00 3.59 0.00 86 1015.0
20260508224717 73 212 3.0 6.0 0.00 3.59 0.00 86 1014.9
20260508224536 73 4 1.0 10.0 0.00 3.59 0.00 86 1015.0
20260508224036 73 147 1.0 18.0 0.00 3.59 0.00 86 1014.9
20260508223657 73 282 4.0 13.0 0.00 3.59 0.00 86 1014.8
20260508223536 73 265 3.0 24.0 0.00 3.59 0.00 86 1014.8
20260508223148 73 341 11.0 24.0 0.00 3.59 0.00 86 1014.8
20260508223036 73 203 5.0 14.0 0.00 3.59 0.00 86 1014.7
20260508222637 73 43 9.0 16.0 0.00 3.59 0.00 86 1014.7
20260508222536 73 233 6.0 16.0 0.00 3.59 0.00 86 1014.6
20260508222128 73 18 7.0 17.0 0.00 3.59 0.00 86 1014.7
20260508222036 73 57 5.0 17.0 0.00 3.59 0.00 86 1014.7
20260508221617 73 174 4.0 17.0 0.00 3.60 0.00 87 1014.6
20260508221536 73 295 5.0 17.0 0.00 3.60 0.00 87 1014.5
20260508221108 73 162 4.0 14.0 0.00 3.60 0.00 87 1014.4
20260508221036 73 254 2.0 14.0 0.00 3.60 0.00 87 1014.4
20260508220557 73 224 10.0 15.0 0.00 3.60 0.00 87 1014.3
20260508220536 73 237 10.0 15.0 0.00 3.60 0.00 87 1014.2
20260508220047 73 348 8.0 19.0 0.00 3.61 0.00 87 1014.2
20260508220036 73 330 7.0 19.0 0.00 3.61 0.00 87 1014.3
20260508215538 73 14 8.0 25.0 0.00 3.61 0.00 87 1014.1
20260508215535 73 10 8.0 25.0 0.00 3.61 0.00 87 1014.1
20260508215036 73 28 3.0 15.0 0.00 3.61 0.00 87 1014.2
20260508215027 73 233 4.0 15.0 0.00 3.61 0.00 87 1014.2
20260508214535 73 344 4.0 26.0 0.00 3.61 0.00 87 1014.0
20260508214517 73 355 6.0 26.0 0.00 3.61 0.00 87 1014.1
20260508214007 73 298 7.0 11.0 0.00 3.61 0.00 87 1014.1
20260508213457 73 228 3.0 7.0 0.00 3.61 0.00 87 1014.1
20260508213036 73 215 1.0 7.0 0.00 3.61 0.00 87 1014.0
20260508212947 73 43 2.0 11.0 0.00 3.61 0.00 87 1014.1
20260508212535 73 359 5.0 19.0 0.00 3.62 0.00 87 1014.1
20260508212437 73 233 7.0 19.0 0.00 3.62 0.00 87 1014.0
20260508212036 73 52 9.0 19.0 0.00 3.64 0.00 87 1014.1
20260508211928 73 242 4.0 11.0 0.00 3.64 0.00 88 1013.9
20260508211535 73 8 5.0 12.0 0.00 3.64 0.00 88 1013.9
20260508211417 73 51 4.0 12.0 0.00 3.64 0.00 88 1013.9
20260508211036 73 43 7.0 12.0 0.00 3.64 0.00 88 1013.8
20260508210906 73 128 1.0 8.0 0.00 3.64 0.00 88 1013.8
20260508210535 73 51 1.0 13.0 0.00 3.65 0.00 88 1013.7
20260508210357 73 49 2.0 13.0 0.00 3.65 0.00 88 1013.7
20260508210035 74 31 5.0 10.0 0.00 3.65 0.00 88 1013.7
20260508205846 74 360 2.0 10.0 0.00 3.65 0.00 88 1013.6
20260508205535 74 259 1.0 12.0 0.00 3.65 0.00 88 1013.6
20260508205337 73 87 4.0 12.0 0.00 3.65 0.00 88 1013.5
20260508205036 73 74 2.0 17.0 0.00 3.66 0.00 88 1013.5
20260508204826 73 109 6.0 19.0 0.00 3.66 0.00 88 1013.5
20260508204535 73 72 7.0 19.0 0.00 3.66 0.00 88 1013.5
20260508204317 73 291 5.0 17.0 0.00 3.67 0.00 88 1013.5
20260508204036 73 36 10.0 17.0 0.00 3.67 0.00 88 1013.5
20260508203535 73 227 4.0 16.0 0.00 3.67 0.00 88 1013.4
20260508203257 73 19 5.0 16.0 0.00 3.67 0.00 88 1013.3
20260508203035 73 56 5.0 16.0 0.00 3.67 0.00 88 1013.4
20260508202746 73 64 7.0 21.0 0.00 3.67 0.00 88 1013.4
20260508202535 73 11 4.0 22.0 0.00 3.67 0.00 88 1013.2
20260508202237 73 65 7.0 22.0 0.00 3.68 0.00 88 1013.2
20260508202035 73 30 3.0 18.0 0.00 3.68 0.00 88 1013.2
20260508201726 73 210 5.0 25.0 0.00 3.70 0.00 88 1013.1
20260508201535 73 127 10.0 25.0 0.00 3.70 0.00 88 1013.1
20260508201217 74 291 3.0 26.0 0.00 3.70 0.00 88 1013.2
20260508201035 74 100 5.0 26.0 0.00 3.70 0.00 88 1013.2
20260508200706 74 85 3.0 14.0 0.00 3.70 0.00 88 1013.3
20260508200535 74 130 2.0 14.0 0.00 3.71 0.00 88 1013.2
20260508200156 74 51 6.0 19.0 0.00 3.72 0.00 88 1013.4
20260508200035 74 60 9.0 19.0 0.00 3.72 0.00 88 1013.4
20260508195646 74 47 3.0 33.0 0.00 3.72 0.00 88 1013.4
20260508195535 74 90 9.0 33.0 0.00 3.72 0.00 88 1013.4
20260508195136 74 83 4.0 15.0 0.00 3.72 0.00 88 1013.4
20260508195035 74 353 6.0 15.0 0.00 3.72 0.00 88 1013.4
20260508194626 74 190 4.0 15.0 0.00 3.73 0.00 88 1013.4
20260508194535 74 324 2.0 15.0 0.00 3.73 0.00 88 1013.4
20260508194116 74 336 2.0 13.0 0.00 3.74 0.00 88 1013.3
20260508194035 74 230 1.0 13.0 0.00 3.75 0.00 88 1013.3
20260508193607 74 49 9.0 16.0 0.00 3.75 0.00 88 1013.3
20260508193534 74 53 8.0 16.0 0.00 3.75 0.00 88 1013.3
20260508193056 74 37 12.0 23.0 0.00 3.75 0.00 88 1013.4
20260508193035 74 56 9.0 23.0 0.00 3.75 0.00 88 1013.3
20260508192546 74 113 7.0 17.0 0.00 3.79 0.00 88 1013.3
20260508192535 74 75 8.0 17.0 0.00 3.79 0.00 88 1013.3
20260508192037 74 111 10.0 17.0 0.00 3.83 0.00 88 1013.2
20260508192035 74 80 10.0 17.0 0.00 3.83 0.00 88 1013.2
20260508191535 74 39 5.0 23.0 0.00 3.85 0.00 88 1013.2
20260508191525 74 67 7.0 23.0 0.00 3.85 0.00 88 1013.2
20260508191034 74 59 7.0 16.0 0.00 3.88 0.00 88 1013.3
20260508191016 74 27 5.0 16.0 0.00 3.88 0.00 88 1013.3
20260508190534 74 20 5.0 16.0 0.00 3.90 0.00 88 1013.2
20260508190505 74 259 7.0 16.0 0.00 3.90 0.00 88 1013.1
20260508190034 75 235 3.0 13.0 0.00 3.99 0.00 88 1013.1
20260508185956 75 15 3.0 13.0 0.00 3.99 0.00 88 1013.1
20260508185534 75 52 4.0 9.0 0.00 3.99 0.00 88 1013.2
20260508185445 75 42 4.0 8.0 0.00 4.00 0.00 88 1013.2
20260508185035 75 9 2.0 21.0 0.00 4.04 0.00 88 1013.2
20260508184936 75 270 4.0 21.0 0.00 4.05 0.00 88 1013.1
20260508184534 75 58 8.0 26.0 0.00 4.06 0.00 88 1013.3
20260508184426 75 21 5.0 26.0 0.00 4.09 0.00 88 1013.2
20260508184035 75 38 6.0 23.0 0.00 4.10 0.00 88 1013.2
20260508183916 75 44 4.0 23.0 0.00 4.10 0.00 88 1013.2
20260508183534 75 67 7.0 21.0 0.00 4.10 0.00 88 1013.2
20260508183406 75 10 6.0 20.0 0.00 4.10 0.00 88 1013.2
20260508183035 75 327 4.0 17.0 0.00 4.13 0.00 88 1013.3
20260508182855 75 353 3.0 17.0 0.00 4.14 0.00 88 1013.3
20260508182534 75 6 2.0 29.0 0.00 4.17 0.00 88 1013.3
20260508182346 75 34 4.0 29.0 0.00 4.17 0.00 88 1013.4
20260508182035 75 346 4.0 18.0 0.00 4.18 0.00 88 1013.4
20260508181534 75 47 8.0 19.0 0.00 4.22 0.00 88 1013.4
20260508181326 75 146 7.0 15.0 0.00 4.22 0.00 88 1013.3
20260508181034 76 128 5.0 10.0 0.00 4.23 0.00 88 1013.3
20260508180815 76 81 0.0 12.0 0.00 4.23 0.00 88 1013.3
20260508180534 76 13 3.0 12.0 0.00 4.25 0.00 88 1013.3
20260508180306 76 257 3.0 25.0 0.00 4.26 0.00 88 1013.2
20260508180034 76 275 7.0 25.0 0.00 4.29 0.00 87 1013.2
20260508175755 76 323 5.0 20.0 0.00 4.31 0.00 87 1013.2
20260508175534 76 269 7.0 20.0 0.00 4.32 0.00 87 1013.1
20260508175246 76 33 4.0 14.0 0.00 4.33 0.00 87 1013.2
20260508175034 76 276 5.0 26.0 0.00 4.35 0.00 87 1013.3
20260508174735 76 10 7.0 26.0 0.00 4.35 0.00 87 1013.2
20260508174534 76 46 11.0 23.0 0.00 4.35 0.00 87 1013.3
20260508174226 76 266 11.0 23.0 0.00 4.38 0.00 87 1013.1
20260508174033 76 56 7.0 15.0 0.00 4.38 0.00 87 1013.3
20260508173715 77 9 5.0 16.0 0.00 4.38 0.00 87 1013.2
20260508173534 77 56 3.0 17.0 0.00 4.39 0.00 87 1013.3
20260508173205 77 70 7.0 17.0 0.00 4.40 0.00 87 1013.3
20260508173034 77 360 3.0 11.0 0.00 4.40 0.00 87 1013.3
20260508172655 77 354 2.0 8.0 0.00 4.42 0.00 87 1013.3
20260508172534 77 276 2.0 8.0 0.00 4.44 0.00 87 1013.3
20260508172145 77 80 2.0 14.0 0.02 4.45 0.00 87 1013.3
20260508172033 77 56 6.0 14.0 0.03 4.45 0.00 87 1013.3
20260508171635 77 191 2.0 15.0 0.14 4.50 0.00 87 1013.2
20260508171534 77 11 9.0 15.0 0.14 4.50 0.00 87 1013.2
20260508171125 77 20 2.0 12.0 0.18 4.51 0.00 87 1013.1
20260508171033 77 27 7.0 12.0 0.18 4.52 0.00 87 1013.2
20260508170615 77 22 3.0 12.0 0.22 4.55 0.00 87 1013.1
20260508170534 77 66 6.0 12.0 0.22 4.55 0.00 87 1013.2
20260508170105 77 45 0.0 16.0 0.24 4.56 0.00 87 1013.2
20260508170033 77 39 2.0 16.0 0.28 4.57 0.00 86 1013.3
20260508165556 78 227 1.0 9.0 0.37 4.59 0.00 87 1013.3
20260508165534 78 284 2.0 9.0 0.37 4.59 0.00 86 1013.3
20260508165045 78 15 4.0 7.0 0.49 4.59 0.00 86 1013.3
20260508165033 78 22 3.0 7.0 0.49 4.59 0.00 86 1013.3
20260508164536 78 277 2.0 10.0 0.57 4.59 0.00 86 1013.4
20260508164534 78 250 2.0 10.0 0.57 4.59 0.00 86 1013.4
20260508164033 78 303 4.0 16.0 0.62 4.61 0.00 86 1013.4
20260508164025 78 294 4.0 16.0 0.62 4.61 0.00 86 1013.4
20260508163534 78 78 7.0 20.0 0.70 4.62 0.00 86 1013.5
20260508163515 78 8 8.0 20.0 0.70 4.62 0.00 86 1013.4
20260508163033 78 86 6.0 13.0 0.80 4.63 0.00 85 1013.5
20260508163005 78 16 5.0 13.0 0.81 4.63 0.00 85 1013.5
20260508162534 79 41 5.0 10.0 0.89 4.66 0.00 85 1013.6
20260508162454 79 34 1.0 6.0 0.90 4.68 0.00 85 1013.6
20260508162033 79 35 1.0 8.0 0.89 4.69 0.00 85 1013.6
20260508161945 79 39 1.0 8.0 0.88 4.68 0.00 85 1013.6
20260508161434 79 64 1.0 14.0 0.83 4.59 0.00 84 1013.6
20260508161033 79 278 3.0 13.0 0.87 4.59 0.00 84 1013.6
20260508160925 79 10 3.0 13.0 0.87 4.59 0.00 84 1013.5
20260508160534 79 59 4.0 14.0 0.89 4.63 0.00 84 1013.6
20260508160414 79 43 3.0 9.0 0.89 4.62 0.00 84 1013.6
20260508160034 79 243 6.0 9.0 0.94 4.58 0.00 84 1013.6
20260508155905 79 232 0.0 2.0 0.90 4.53 0.00 84 1013.7
20260508155534 78 26 0.0 6.0 0.89 4.53 0.00 84 1013.7
20260508155354 78 270 2.0 6.0 0.87 4.53 0.00 84 1013.7
20260508155033 79 157 1.0 6.0 0.83 4.45 0.00 84 1013.7
20260508154844 79 360 2.0 4.0 0.81 4.43 0.00 84 1013.8
20260508154533 79 270 0.0 15.0 0.79 4.39 0.00 84 1013.8
20260508154334 79 306 1.0 15.0 0.82 4.38 0.00 84 1013.8
20260508154033 79 256 3.0 10.0 0.82 4.37 0.00 84 1013.8
20260508153533 79 244 3.0 11.0 0.82 4.32 0.00 84 1013.8
20260508153314 79 268 5.0 8.0 0.92 4.32 0.00 84 1013.8
20260508153033 79 266 1.0 5.0 0.87 4.25 0.00 84 1013.9
20260508152805 79 295 1.0 4.0 0.85 4.20 0.00 84 1013.9
20260508152533 79 222 1.0 13.0 0.86 4.20 0.00 83 1013.9
20260508152254 79 72 5.0 17.0 0.89 4.18 0.00 83 1013.8
20260508152033 79 55 7.0 17.0 0.90 4.19 0.00 83 1013.8
20260508151745 79 232 5.0 7.0 0.94 4.17 0.00 83 1013.8
20260508151532 79 316 1.0 13.0 0.96 4.18 0.00 83 1013.9
20260508151234 79 328 6.0 13.0 0.94 4.13 0.00 83 1013.9
20260508151033 79 229 2.0 12.0 0.93 4.12 0.00 83 1013.8
20260508150724 80 350 4.0 8.0 0.94 4.10 0.00 83 1013.8
20260508150532 80 320 3.0 7.0 0.93 4.09 0.00 83 1013.9
20260508150214 80 308 2.0 6.0 0.98 4.05 0.00 83 1013.9
20260508150033 80 37 1.0 6.0 0.93 4.00 0.00 83 1013.9
20260508145704 80 23 2.0 6.0 0.93 4.04 0.00 83 1013.9
20260508145533 80 280 1.0 7.0 0.94 4.03 0.00 83 1013.9
20260508145153 80 244 4.0 7.0 0.93 4.01 0.00 82 1014.0
20260508145032 80 273 1.0 7.0 0.93 4.00 0.00 82 1014.0
20260508144644 80 180 3.0 5.0 0.94 4.04 0.00 82 1014.0
20260508144533 80 217 1.0 4.0 0.98 4.03 0.00 82 1014.0
20260508144134 80 146 1.0 8.0 0.93 3.96 0.00 82 1014.0
20260508144032 80 231 2.0 8.0 0.94 3.96 0.00 82 1014.0
20260508143624 80 238 1.0 5.0 0.96 3.88 0.00 81 1014.0
20260508143533 80 222 2.0 5.0 0.96 3.88 0.00 81 1014.0
20260508143032 80 258 1.0 5.0 0.95 3.77 0.00 81 1014.0
20260508142603 80 248 1.0 6.0 0.95 3.73 0.00 81 1014.0
20260508142532 80 230 1.0 6.0 0.95 3.73 0.00 81 1014.1
20260508142054 80 249 3.0 10.0 0.96 3.68 0.00 81 1014.0
20260508142032 80 242 2.0 11.0 0.96 3.68 0.00 81 1014.0
20260508141543 80 217 6.0 10.0 0.93 3.62 0.00 80 1014.0
20260508141532 80 223 5.0 10.0 0.93 3.62 0.00 80 1013.9
20260508141035 80 229 2.0 5.0 0.96 3.59 0.00 80 1013.9
20260508141033 80 201 2.0 5.0 0.96 3.59 0.00 80 1013.9
20260508140532 80 225 5.0 7.0 1.00 3.58 0.00 80 1013.9